Location: Isles
(48.9125°N, 2.8272°E)
Time: 20:42:13
(UTC+00:00)

COSMOS 2428 - Pass Details

Date: 03 February 2023
Orbit: 843 x 858 km, 70.9° (Epoch: 21 March)

Event Time Altitude Azimuth Distance (km) Brightness Sun altitude
Rises 20:10:12 0° 212° (SSW) 3,391 6.1 -33.1°
Reaches altitude 10° 20:12:38 10° 214° (SW) 2,459 5.3 -33.5°
Enters shadow 20:14:31 22° 218° (SW) 1,767 4.5 -33.8°
